STARLINK-31884, 59676

Orbit data source: Space-Track

STARLINK-31884, 59676 is a payload satellite owned by SpaceX/Seattle (US) in LEO that was launched on Mon, 06 May 2024 UTC via an FALCON 9 launch vehicle from the Air Force Eastern Test Range (AFETR). Payload-class satellites include a variety of spacecraft equipped with specific instruments for various scientific and technological missions. These include communications satellites like Starlink; space stations such as the ISS; scientific satellites like the Hubble; Earth observation satellites from companies like Planet Labs, Umbra, and HawkEye 360; GPS; miniature CubeSats for education and research; and military/defense satellites.

Loading next visibility...
Identifier
59676, 2024-084Y
Orbit
LEO
Last TLE update
1 day ago
Origin
Manufacturer
SpaceX/Seattle
Mission
Operational spacecraft
Bus & Motor
STARLINK V2M, Unknown motor
Mass
730 kg wet, ~700 kg dry
Launch date (UTC)
2024-05-06 (1 year ago)
Launch vehicle
FALCON 9
Launch site
Air Force Eastern Test Range (AFETR)
Object type
Payload
Rocket body
Debris
Shape & HBR
Unknown
Radar Cross Section
Large (>1 m²)

Expand to show TLE details & history

TLE from 1 day ago
0 STARLINK-31884
1 59676U 24084Y   25199.54148212  .00003196  00000-0  12560-3 0  9990
2 59676  42.9982 284.1219 0000536 246.5873 113.4923 15.27579351 68568
Epoch: 2025-07-18T12:59Z
TLE epoch observation values (Epoch: 2025-07-18T12:59:44.055Z)
Latitude
0.00005°
Longitude
152.59693°
Altitude
482.973 km
Speed
7.626 km/s
True Right ascension
18h 56m 29s
True Declination
0° 00' 00"
Sunlit
Object was in full shadow at epoch
Visualization orbit readout
Latitude
42.54321°
Longitude
-135.22777°
Altitude
486.409 km
Speed
7.628 km/s
Apparent Right ascension
19h 39m 00s
Apparent Declination
7° 00' 58"
Sunlit
Object is in daylight
Visualization observer readout
Local Sidereal Time
03:17:32
Azimuth
291.706° WNW
Elevation
-13.823°
Doppler factor
1
Orbital elements
Apogee altitude
485.364 km
Perigee altitude
484.629 km
Semi-major axis
6,863.134 km
Eccentricity
0.00005
Inclination
42.9982°
RAAN
284.1219°
Arg. of periapsis
246.5873°
True anomaly
113.49793°
Mean anomaly
113.4923°
Eccentric anomaly
113.49512°
Mean motion
3.81733 °/min
Orbital period
94.31 mins
BSTAR
0.0001256
Loading maneuver chart data...
Loading SW <> Apogee altitude chart data...
Loading historical data...
Loading historical data...
Loading historical data...
Loading historical data...
Loading historical data...
Loading historical data...
Loading historical data...
|